Sulphur, LA

2:39 PM CDT on September 27, 2016 (GMT -0500)
Sulphur

Weather History for KUXL - August, 2013

Change the Weather History Date:

Sunday, August 11, 2013

  Actual Average (KLCH) Record (KLCH)
Temperature  
Mean Temperature 84 °F 83 °F  
Max Temperature 92 °F 92 °F 102 °F (2015)
Min Temperature 75 °F 74 °F 66 °F (1989)
Degree Days  
Heating Degree Days 0 0  
Month to date heating degree days 0  
Since 1 June heating degree days 0  
Since 1 July heating degree days 0  
Cooling Degree Days 18 18  
Month to date cooling degree days 198  
Year to date cooling degree days 1769  
Since 1 June cooling degree days 1231  
Growing Degree Days 34 (Base 50)    
Moisture  
Dew Point 75 °F    
Average Humidity 78    
Maximum Humidity 97    
Minimum Humidity 53    
Precipitation  
Precipitation 0.09 in 0.15 in 2.44 in (1988)
Month to date precipitation 1.82  
Year to date precipitation 35.18  
Snow  
Snow 0.00 in 0.00 in 0.00 in ()
Month to date snowfall 0.0  
Since 1 June snowfall 0.0  
Since 1 July snowfall 0.0  
Snow Depth -    
Sea Level Pressure  
Sea Level Pressure 30.05 in    
Wind  
Wind Speed 4 mph (ESE)    
Max Wind Speed 18 mph    
Max Gust Speed 24 mph    
Visibility 10 miles    
Events Rain , Thunderstorm    
T = Trace of Precipitation, MM = Missing Value Source: NWS Daily Summary

Daily Weather History Graph

Daily Weather History Graph

Search for Another Location

Airport or City:

Trip Planner

Search our weather history database for the weather conditions in past years. The results will help you decide how hot, cold, wet, or windy it might be!

Date:

Astronomy

Aug. 11, 2013 Rise Set
Actual Time 6:38 AM CDT 7:58 PM CDT
Civil Twilight 6:13 AM CDT 8:23 PM CDT
Nautical Twilight 5:42 AM CDT 8:53 PM CDT
Astronomical Twilight 5:11 AM CDT 9:25 PM CDT
Moon 11:01 AM CDT (8/11) 10:41 PM CDT (8/11)
Length of Visible Light 14h 10m
Length of Day
13h 19m
Waxing Crescent, 22% of the Moon is Illuminated
Aug 11
Waxing Crescent
Aug 14
First Quarter
Aug 20
Full
Aug 28
Last Quarter
Sep 5
New

Hourly Weather History & Observations

Time (CDT) Temp. Heat Index Dew Point Humidity Pressure Visibility Wind Dir Wind Speed Gust Speed Precip Events Conditions
12:15 AM 77.5 °F - 76.6 °F 97% 30.05 in 10.0 mi North 3.5 mph - N/A   Clear
12:35 AM 77.4 °F - 76.5 °F 97% 30.05 in 10.0 mi Calm Calm - N/A   Clear
12:55 AM 77.2 °F - 76.3 °F 97% 30.05 in 7.0 mi Calm Calm - N/A   Clear
1:15 AM 76.8 °F - 75.9 °F 97% 30.04 in 7.0 mi Calm Calm - N/A   Clear
1:35 AM 77.2 °F - 76.3 °F 97% 30.03 in 10.0 mi Calm Calm - N/A   Clear
1:55 AM 77.0 °F - 76.1 °F 97% 30.02 in 10.0 mi Calm Calm - N/A   Clear
2:15 AM 77.0 °F - 75.9 °F 96% 30.02 in 10.0 mi Calm Calm - N/A   Clear
2:35 AM 77.2 °F - 76.1 °F 96% 30.03 in 10.0 mi Calm Calm - N/A   Clear
2:55 AM 76.6 °F - 75.4 °F 96% 30.03 in 10.0 mi Calm Calm - N/A   Clear
3:15 AM 75.9 °F - 74.8 °F 96% 30.03 in 10.0 mi Calm Calm - N/A   Clear
3:35 AM 76.1 °F - 75.2 °F 97% 30.04 in 10.0 mi Calm Calm - N/A   Scattered Clouds
3:55 AM 77.5 °F - 76.5 °F 96% 30.04 in 10.0 mi ENE 4.6 mph - N/A   Clear
4:15 AM 77.5 °F - 76.3 °F 96% 30.04 in 10.0 mi ENE 3.5 mph - N/A   Clear
4:35 AM 77.4 °F - 76.1 °F 96% 30.04 in 10.0 mi ENE 3.5 mph - N/A   Clear
4:55 AM 77.4 °F - 76.3 °F 96% 30.04 in 10.0 mi NNE 3.5 mph - N/A   Clear
5:15 AM 77.4 °F - 76.3 °F 96% 30.04 in 10.0 mi ENE 3.5 mph - N/A   Clear
5:35 AM 77.4 °F - 76.1 °F 96% 30.04 in 10.0 mi Calm Calm - N/A   Clear
5:55 AM 77.4 °F - 76.1 °F 96% 30.05 in 10.0 mi ENE 3.5 mph - N/A   Scattered Clouds
6:15 AM 77.9 °F - 77.0 °F 97% 30.05 in 10.0 mi ENE 3.5 mph - N/A   Scattered Clouds
6:35 AM 77.9 °F - 76.6 °F 96% 30.06 in 10.0 mi ENE 4.6 mph - N/A   Clear
6:55 AM 77.9 °F - 77.0 °F 97% 30.06 in 7.0 mi ENE 5.8 mph - N/A   Clear
7:15 AM 78.3 °F - 77.2 °F 96% 30.06 in 7.0 mi ENE 4.6 mph - N/A   Clear
7:35 AM 79.2 °F - 77.9 °F 96% 30.06 in 10.0 mi East 4.6 mph - N/A   Clear
7:55 AM 80.4 °F 87.4 °F 78.3 °F 93% 30.07 in 10.0 mi ENE 3.5 mph - N/A   Clear
8:15 AM 81.9 °F 91.1 °F 78.6 °F 90% 30.07 in 10.0 mi East 3.5 mph - N/A   Clear
8:35 AM 83.1 °F 94.0 °F 78.8 °F 87% 30.07 in 10.0 mi ESE 4.6 mph - N/A   Clear
8:55 AM 84.2 °F 95.7 °F 78.4 °F 83% 30.08 in 10.0 mi East 4.6 mph - N/A   Clear
9:15 AM 85.5 °F 97.7 °F 78.4 °F 79% 30.08 in 10.0 mi East 5.8 mph - N/A   Clear
9:35 AM 87.1 °F 98.8 °F 77.2 °F 72% 30.09 in 10.0 mi East 5.8 mph - N/A   Clear
9:55 AM 87.4 °F 97.7 °F 75.7 °F 68% 30.08 in 10.0 mi ESE 4.6 mph - N/A   Clear
10:15 AM 88.5 °F 99.9 °F 76.1 °F 67% 30.08 in 10.0 mi SE 4.6 mph - N/A   Scattered Clouds
10:35 AM 89.2 °F 99.5 °F 75.2 °F 63% 30.09 in 10.0 mi East 5.8 mph - N/A   Mostly Cloudy
10:55 AM 88.9 °F 98.6 °F 74.7 °F 63% 30.09 in 10.0 mi SE 8.1 mph - N/A   Scattered Clouds
11:15 AM 90.5 °F 100.3 °F 74.5 °F 59% 30.09 in 10.0 mi East 5.8 mph - N/A   Mostly Cloudy
11:35 AM 90.9 °F 98.9 °F 72.9 °F 55% 30.08 in 10.0 mi SE 5.8 mph - N/A   Scattered Clouds
11:55 AM 91.6 °F 100.5 °F 73.4 °F 55% 30.08 in 10.0 mi East 6.9 mph - N/A   Scattered Clouds
12:15 PM 92.3 °F 102.8 °F 74.7 °F 56% 30.07 in 10.0 mi ESE 6.9 mph - N/A   Scattered Clouds
12:35 PM 86.9 °F 95.9 °F 74.8 °F 67% 30.08 in 10.0 mi SE 18.4 mph - N/A   Scattered Clouds
12:55 PM 88.3 °F 98.9 °F 75.6 °F 66% 30.07 in 10.0 mi SSE 15.0 mph 19.6 mph N/A   Scattered Clouds
1:15 PM 90.1 °F 100.6 °F 75.0 °F 61% 30.06 in 10.0 mi SSE 12.7 mph 16.1 mph N/A   Scattered Clouds
1:35 PM 91.4 °F 100.7 °F 73.6 °F 56% 30.06 in 10.0 mi SE 13.8 mph 17.3 mph N/A Thunderstorm Thunderstorm
1:55 PM 90.5 °F 97.0 °F 71.2 °F 53% 30.06 in 10.0 mi SSE 13.8 mph 18.4 mph N/A Thunderstorm Clear
2:15 PM 89.2 °F 96.4 °F 72.3 °F 57% 30.06 in 10.0 mi SE 11.5 mph - N/A Thunderstorm Scattered Clouds
2:35 PM 87.1 °F 96.8 °F 75.4 °F 68% 30.07 in 10.0 mi ESE 10.4 mph - N/A Thunderstorm Thunderstorm
2:55 PM 87.8 °F 96.6 °F 74.1 °F 64% 30.06 in 10.0 mi ESE 11.5 mph - N/A   Scattered Clouds
3:15 PM 88.5 °F 95.8 °F 72.5 °F 59% 30.04 in 10.0 mi SSE 10.4 mph - N/A Thunderstorm Clear
3:35 PM 89.6 °F 97.2 °F 72.5 °F 57% 30.04 in 10.0 mi SSE 10.4 mph - N/A   Clear
3:55 PM 90.5 °F 99.2 °F 73.2 °F 57% 30.04 in 10.0 mi SSE 6.9 mph - N/A   Clear
4:15 PM 91.4 °F 98.9 °F 72.0 °F 53% 30.04 in 10.0 mi ESE 8.1 mph - N/A   Scattered Clouds
4:35 PM 89.1 °F 97.0 °F 73.0 °F 59% 30.04 in 10.0 mi SE 10.4 mph - N/A   Scattered Clouds
4:55 PM 90.3 °F 100.4 °F 74.8 °F 60% 30.04 in 10.0 mi SSE 9.2 mph - N/A   Clear
5:15 PM 86.5 °F 94.6 °F 74.1 °F 66% 30.05 in 7.0 mi ESE 15.0 mph 24.2 mph N/A Rain Rain
5:35 PM 81.7 °F 88.7 °F 76.1 °F 83% 30.05 in 10.0 mi Calm Calm - 0.09 in   Mostly Cloudy
5:55 PM 85.5 °F 94.6 °F 75.6 °F 72% 30.04 in 10.0 mi SSE 8.1 mph - 0.09 in   Scattered Clouds
6:15 PM 87.8 °F 95.6 °F 73.2 °F 62% 30.04 in 10.0 mi SSE 9.2 mph - N/A   Scattered Clouds
6:35 PM 88.0 °F 96.0 °F 73.6 °F 62% 30.04 in 10.0 mi SE 6.9 mph - N/A   Clear
6:55 PM 87.4 °F 94.8 °F 73.0 °F 62% 30.04 in 10.0 mi SE 10.4 mph - N/A   Scattered Clouds
7:15 PM 86.4 °F 94.2 °F 73.6 °F 66% 30.04 in 10.0 mi SSE 8.1 mph - N/A   Scattered Clouds
7:35 PM 85.6 °F 94.2 °F 74.7 °F 70% 30.05 in 10.0 mi SSE 9.2 mph - N/A   Clear
7:55 PM 84.4 °F 91.7 °F 74.1 °F 71% 30.05 in 10.0 mi SSE 4.6 mph - N/A   Clear
8:15 PM 83.3 °F 90.5 °F 74.5 °F 75% 30.05 in 10.0 mi SSE 5.8 mph - N/A   Clear
8:35 PM 83.3 °F 90.2 °F 74.3 °F 74% 30.05 in 10.0 mi SE 4.6 mph - N/A   Clear
8:55 PM 81.9 °F 88.0 °F 74.5 °F 78% 30.06 in 10.0 mi SSE 4.6 mph - N/A   Clear
9:15 PM 81.7 °F 87.8 °F 74.5 °F 79% 30.06 in 7.0 mi SSE 3.5 mph - N/A   Clear
9:35 PM 81.9 °F 88.2 °F 74.8 °F 79% 30.06 in 10.0 mi SE 3.5 mph - N/A   Clear
9:55 PM 80.8 °F 86.9 °F 75.7 °F 85% 30.06 in 10.0 mi SSE 4.6 mph - N/A   Clear
10:15 PM 80.8 °F 87.1 °F 76.1 °F 86% 30.07 in 10.0 mi Calm Calm - N/A   Clear
10:35 PM 80.8 °F 87.1 °F 76.1 °F 86% 30.07 in 10.0 mi Calm Calm - N/A   Clear
10:55 PM 80.2 °F 86.3 °F 77.0 °F 90% 30.06 in 10.0 mi East 3.5 mph - N/A   Clear